Overview Statistics Trail Chart Weather Telemetry Raw packets
 

This is the latest recevied weather packets stored in our database for station/object KO4LCK. If no packets are shown the sender has not sent any weather packets the latest 10 day(s).

<< 42 43 44 45 46 47 48 >>
Time Temp. Humidity Pressure Rain* Wind** Luminosity Snow
1788362288 33.33° C 57% 1021.4 hPa 0 mm - 585 W/m² -
1788361983 32.78° C 59% 1021.6 hPa 0 mm - 569 W/m² -
1788361678 32.78° C 59% 1021.6 hPa 0 mm - 559 W/m² -
1788361374 32.22° C 59% 1021.4 hPa 0 mm - 541 W/m² -
1788361073 32.22° C 60% 1021.4 hPa 0 mm - 528 W/m² -
1788360769 32.22° C 58% 1021.4 hPa 0 mm - 513 W/m² -
1788360464 32.22° C 59% 1021.3 hPa 0 mm - 499 W/m² -
1788360160 32.22° C 59% 1021.5 hPa 0 mm - 482 W/m² -
1788359860 31.67° C 60% 1021.1 hPa 0 mm - 469 W/m² -
1788359555 32.22° C 58% 1021.3 hPa 0 mm - 455 W/m² -
1788359250 31.11° C 62% 1021.4 hPa 0 mm - 441 W/m² -
1788358947 31.11° C 63% 1021.4 hPa 0 mm - 423 W/m² -
1788358641 30.56° C 63% 1021.5 hPa 0 mm - 407 W/m² -
1788358337 30.56° C 63% 1021.7 hPa 0 mm - 390 W/m² -
1788358032 30.56° C 64% 1021.6 hPa 0 mm - 375 W/m² -
1788357732 30° C 67% 1021.5 hPa 0 mm - 356 W/m² -
1788357431 30° C 67% 1021.4 hPa 0 mm - 344 W/m² -
1788357128 30° C 67% 1021.4 hPa 0 mm - 327 W/m² -
1788356827 29.44° C 70% 1021.5 hPa 0 mm - 313 W/m² -
1788356522 28.89° C 72% 1021.4 hPa 0 mm - 293 W/m² -
1788356217 28.33° C 74% 1021.3 hPa 0 mm - 283 W/m² -
1788355917 27.78° C 76% 1021.4 hPa 0 mm - 268 W/m² -
1788355612 27.78° C 76% 1021.5 hPa 0 mm - 255 W/m² -
1788355307 27.22° C 78% 1021.3 hPa 0 mm - 236 W/m² -
1788355003 26.67° C 80% 1021.6 hPa 0 mm - 220 W/m² -

* Rain latest hour (hover to see other rain measurements)
** Current wind speed in m/s (hover to see current wind gust speed)